Home > Weather > Johor Bahru > Past weeks

Flag for Malaysia Weather for the Past 2 Weeks in Johor Bahru, Malaysia

Now
86 °F

Partly sunny.


Feels Like: 95 °F
Forecast: 76 / 82 °F
Wind: 20 mph from Northeast

Location: Singapore / Paya Lebar

Current Time: Feb 8, 2016 at 3:00:56 PM

Latest Report: Feb 8, 2016 at 2:00 PM


Visibility: 6 mi

Pressure: 29.83 "Hg

Humidity: 70%

Dew point: 75 °F

Location of Johor BahruLocation

Historic Weather in Johor Bahru — Graph

°F

Johor Bahru Temperature Yesterday

Maximum temperature yesterday: 84 °F (at 3:00 PM)
Minimum temperature yesterday: 77 °F (at 5:00 AM)
Average temperature yesterday: 81 °F

High & Low Weather Summary for the Past Weeks

 TemperatureHumidityPressure
High95 °F (Jan 28, 3:00 PM)94% (Jan 26, 7:00 AM)29.95 "Hg (Jan 26, 7:00 AM)
Low77 °F (Feb 7, 5:00 AM)53% (Jan 28, 3:00 PM)29.68 "Hg (Feb 5, 5:00 PM)
Average85 °F76%29.83 "Hg
* Reported Jan 24 2:00 PM — Feb 8 2:00 PM, Johor Bahru, Weather by CustomWeather, © 2016

Note: Actual official high and low records may vary slightly from our data, if they occured in-between our weather recording intervals... More about our weather records

Advertising

Johor Bahru Weather History for the Previous 24 Hours

 ConditionsComfort  
Time TempWeatherWind HumidityBarometerVisibility
2:00 PM
Mon, Feb 8
86 °FPartly sunny.20 mph70%29.83 "Hg6 mi
1:00 PM84 °FPartly sunny.15 mph74%29.86 "HgN/A
12:00 PM84 °FPartly sunny.20 mph70%29.89 "HgN/A
11:00 AM84 °FPartly sunny.17 mph74%29.89 "HgN/A
10:00 AM82 °FPartly sunny.17 mph74%29.89 "HgN/A
9:00 AM82 °FPartly sunny.15 mph74%29.86 "HgN/A
8:00 AM81 °FPartly sunny.13 mph79%29.83 "Hg6 mi
7:00 AM81 °FPassing clouds.13 mph79%29.83 "Hg5 mi
6:00 AM81 °FPassing clouds.15 mph79%29.83 "Hg5 mi
5:00 AM81 °FPassing clouds.13 mph79%29.80 "Hg5 mi
11:00 PM
Sun, Feb 7
82 °FPassing clouds.15 mph74%29.86 "Hg6 mi
10:00 PM82 °FPartly cloudy.15 mph79%29.86 "Hg6 mi
9:00 PM82 °FPassing clouds.13 mph79%29.83 "Hg5 mi
8:00 PM82 °FPassing clouds.16 mph79%29.83 "Hg5 mi
7:00 PM82 °FPartly sunny.14 mph79%29.80 "Hg6 mi
6:00 PM82 °FPartly sunny.18 mph79%29.77 "Hg6 mi
5:00 PM82 °FBroken clouds.18 mph79%29.77 "Hg6 mi
4:00 PM82 °FBroken clouds.18 mph79%29.77 "Hg6 mi
3:00 PM84 °FLight rain. Broken clouds.22 mph74%29.80 "Hg5 mi
Weather by CustomWeather, © 2016

See weather overviewHow to use our weather pages